Temp
15 15 15 16 17 17 17 17 18 18 17 18 18 19 18 18 17 16 15 17 16 16 13 13 13 13 13 13 13 12 12 11 11 11 10 10 10 9 9 9 8 8 8 7
15 15 16 16 17 17 17 17 18 19 18 18 18 19 18 18 18 17 17 17 16 15 13 14 13 13 13 13 13 12 12 11 11 10 11 10 10 9 9 9 8 8 8 8
15 17 16 16 17 18 17 17 17 18 19 19 18 18 18 19 18 17 17 17 15 15 15 15 15 14 13 13 12 12 12 11 11 11 11 10 10 10 9 9 9 8 8 8
15 16 16 17 17 18 18 18 18 18 18 18 18 17 18 18 17 17 17 17 16 15 15 14 15 14 13 13 12 12 12 11 11 11 11 10 10 10 9 9 8 9 9 8
16 16 16 17 17 18 18 18 18 18 18 18 18 17 18 17 17 17 18 17 16 15 16 15 15 14 12 14 12 12 11 11 11 11 10 10 10 10 9 9 9 9 9 8
15 16 16 17 17 18 18 18 18 18 18 17 18 18 18 18 18 18 17 16 16 15 16 15 14 13 13 14 13 12 11 11 11 11 10 10 10 9 9 9 8 8 9 8
16 16 16 17 17 18 18 18 17 16 14 14 18 18 19 18 18 18 17 17 17 16 15 15 13 13 13 13 13 12 11 11 11 10 10 10 10 9 9 8 8 8 8 9
15 16 17 17 17 18 18 18 17 14 12 16 18 18 18 18 18 17 17 17 17 16 15 14 15 15 14 13 12 11 11 10 11 10 10 10 9 8 8 7 7 7 7 8
15 16 16 16 17 17 17 18 18 18 15 16 17 18 17 17 17 17 17 16 16 16 16 14 15 15 14 13 11 11 11 10 10 10 10 10 9 8 6 6 6 6 7 8
16 16 17 17 17 17 17 18 17 17 14 13 15 17 17 17 17 17 17 16 15 13 11 14 14 14 13 11 11 11 11 11 10 10 10 10 9 7 7 6 6 7 7 8
16 16 17 17 17 17 17 18 18 17 17 13 10 16 17 16 17 16 16 15 14 9 11 12 15 14 12 11 12 11 11 11 10 10 10 10 9 8 7 7 7 7 7 8
16 16 16 17 17 17 17 17 18 18 17 16 17 16 17 16 16 17 16 15 15 12 10 11 14 12 12 12 12 12 11 11 10 10 10 10 9 8 8 8 8 8 8 7
16 16 17 16 17 17 17 17 16 17 18 17 15 16 17 16 16 16 17 16 15 13 13 12 12 12 12 13 12 11 11 11 10 10 10 10 9 9 9 9 8 8 8 7
15 15 17 16 16 15 16 16 17 17 16 17 16 16 16 16 15 16 16 15 15 14 14 13 12 12 12 12 11 11 10 11 10 10 10 10 9 8 8 8 8 7 8 7
14 14 15 16 16 15 15 16 17 16 16 17 16 15 16 16 17 16 16 17 14 13 12 13 13 12 12 12 12 11 10 10 11 10 10 9 9 9 8 7 7 7 7 7
14 14 14 15 16 15 15 16 16 16 16 16 16 15 15 15 14 15 15 15 14 14 12 14 13 12 12 12 11 11 10 10 10 10 10 9 9 8 8 7 7 7 7 7
13 13 13 14 14 14 15 15 16 15 16 15 15 16 15 15 15 14 15 14 14 13 14 15 13 13 12 12 11 10 10 10 10 10 10 10 8 8 8 7 6 6 6 6
12 12 12 13 13 11 14 15 15 15 15 15 16 16 16 15 15 14 14 14 14 14 15 14 13 13 12 11 11 11 10 10 10 10 10 10 9 7 7 7 6 6 6 7
12 12 12 12 12 13 13 14 14 14 15 14 15 16 15 13 13 14 14 14 14 14 14 13 12 12 12 12 11 11 11 10 10 10 10 10 9 8 7 7 6 6 6 7
12 12 11 12 11 10 12 13 13 12 13 13 15 15 14 14 13 13 13 13 14 14 12 12 12 12 12 11 11 11 11 10 10 10 10 10 9 9 8 7 7 6 6 6
11 12 12 12 11 12 11 12 13 12 11 12 14 14 14 14 14 14 12 12 9 11 12 12 12 12 12 12 12 11 10 10 9 9 9 9 9 8 8 8 7 7 6 6
10 10 11 11 11 10 9 10 11 10 10 10 11 11 12 12 13 13 11 10 9 10 11 12 12 12 12 12 11 11 10 10 9 9 9 9 9 8 8 7 7 7 7 6
8 8 8 8 7 7 8 9 8 9 10 10 10 10 11 12 12 12 11 12 9 9 11 12 12 12 12 11 11 11 10 9 9 9 9 9 9 8 8 7 7 7 7 7
7 7 7 7 7 7 7 7 7 8 9 9 9 10 9 9 10 11 10 11 7 9 11 11 12 11 11 11 10 10 9 9 9 8 8 8 8 8 8 8 7 7 7 7
6 6 6 6 6 6 6 6 6 7 7 7 9 9 9 7 7 8 8 9 7 7 10 11 11 11 10 10 10 9 9 8 8 8 8 8 8 8 8 7 7 7 7 7
6 6 5 5 5 6 7 8 8 8 8 8 8 8 6 6 6 5 5 6 6 8 9 10 10 10 9 9 8 9 8 8 8 8 8 8 8 8 8 8 8 8 7 7
Height
3192 3192 3191 3192 3195 3197 3199 3199 3197 3193 3190 3191 3191 3191 3194 3198 3199 3199 3199 3196 3198 3198 3198 3203 3202 3204 3203 3202 3200 3200 3199 3197 3196 3193 3190 3187 3184 3181 3178 3175 3173 3172 3172 3173
3189 3186 3187 3191 3192 3195 3196 3198 3194 3191 3191 3191 3188 3187 3189 3189 3190 3192 3193 3192 3194 3193 3192 3198 3200 3202 3203 3202 3201 3199 3198 3196 3195 3193 3191 3188 3185 3182 3181 3179 3178 3178 3176 3176
3186 3183 3186 3189 3189 3190 3191 3194 3192 3191 3190 3190 3187 3185 3184 3183 3186 3186 3189 3190 3191 3190 3191 3196 3198 3200 3201 3201 3199 3197 3196 3194 3194 3192 3190 3188 3186 3183 3181 3181 3179 3179 3179 3177
3183 3181 3184 3186 3186 3187 3186 3189 3189 3188 3190 3188 3188 3184 3182 3180 3180 3181 3183 3185 3187 3188 3190 3195 3196 3198 3199 3199 3197 3198 3197 3194 3193 3192 3190 3187 3185 3184 3182 3180 3179 3179 3178 3177
3179 3179 3182 3184 3184 3184 3183 3184 3186 3187 3185 3184 3183 3184 3177 3178 3177 3179 3179 3180 3185 3186 3191 3192 3193 3194 3194 3195 3199 3196 3193 3194 3190 3192 3189 3187 3184 3182 3181 3179 3178 3176 3176 3175
3176 3176 3178 3179 3179 3179 3180 3180 3180 3181 3181 3181 3180 3177 3174 3173 3172 3174 3177 3179 3181 3183 3187 3190 3193 3193 3190 3192 3194 3192 3194 3192 3190 3189 3187 3185 3182 3179 3177 3177 3176 3175 3174 3174
3174 3172 3174 3176 3175 3176 3177 3178 3179 3180 3179 3178 3177 3174 3171 3169 3173 3173 3174 3176 3177 3178 3182 3185 3190 3189 3188 3190 3192 3190 3191 3190 3187 3186 3184 3182 3178 3175 3172 3172 3171 3171 3171 3171
3170 3170 3170 3172 3173 3174 3175 3176 3177 3181 3183 3177 3175 3172 3171 3170 3169 3170 3174 3174 3177 3178 3181 3182 3183 3182 3185 3189 3190 3189 3188 3190 3186 3183 3180 3177 3173 3171 3166 3164 3165 3167 3167 3169
3166 3164 3165 3167 3170 3172 3170 3171 3174 3174 3175 3175 3173 3170 3169 3170 3169 3168 3169 3176 3177 3176 3179 3180 3182 3183 3182 3184 3192 3189 3187 3187 3185 3182 3177 3174 3170 3167 3160 3156 3157 3161 3164 3166
3162 3163 3162 3164 3166 3163 3165 3169 3171 3170 3171 3174 3170 3167 3166 3167 3170 3164 3166 3169 3171 3164 3163 3184 3181 3181 3181 3183 3191 3187 3186 3184 3182 3179 3175 3171 3168 3166 3153 3148 3155 3160 3162 3164
3158 3161 3157 3160 3161 3160 3162 3163 3166 3167 3166 3167 3172 3166 3163 3167 3168 3166 3166 3169 3169 3173 3162 3166 3179 3178 3179 3182 3184 3185 3183 3182 3179 3177 3173 3170 3167 3166 3165 3160 3160 3163 3163 3163
3153 3155 3154 3154 3158 3159 3160 3161 3161 3161 3163 3164 3163 3165 3163 3166 3166 3165 3164 3161 3162 3154 3153 3157 3175 3178 3177 3178 3178 3179 3180 3178 3177 3175 3172 3168 3167 3167 3166 3165 3164 3164 3162 3162
3147 3149 3150 3150 3154 3155 3155 3156 3157 3157 3157 3158 3159 3161 3160 3158 3163 3163 3165 3164 3167 3164 3163 3168 3170 3176 3177 3177 3176 3177 3176 3174 3174 3172 3170 3168 3167 3168 3166 3164 3163 3162 3162 3162
3144 3144 3145 3148 3150 3152 3153 3153 3154 3153 3155 3153 3153 3155 3156 3153 3159 3161 3161 3161 3157 3157 3159 3163 3171 3171 3175 3174 3175 3175 3174 3170 3170 3169 3168 3167 3166 3167 3165 3164 3163 3162 3162 3162
3143 3144 3144 3145 3147 3148 3151 3152 3150 3149 3152 3150 3149 3154 3155 3156 3155 3155 3158 3157 3155 3158 3159 3164 3168 3170 3171 3171 3172 3172 3171 3168 3165 3164 3166 3166 3165 3165 3164 3162 3163 3163 3161 3161
3142 3142 3142 3142 3143 3145 3148 3149 3148 3148 3149 3147 3145 3146 3150 3155 3158 3158 3156 3153 3152 3153 3157 3164 3167 3171 3169 3170 3170 3168 3168 3166 3164 3162 3162 3163 3163 3163 3163 3162 3158 3159 3160 3160
3141 3141 3140 3140 3141 3141 3144 3148 3149 3147 3146 3149 3147 3143 3145 3146 3149 3154 3155 3155 3156 3158 3161 3162 3164 3166 3167 3169 3166 3170 3167 3163 3161 3161 3161 3161 3160 3162 3163 3161 3158 3156 3157 3158
3140 3140 3140 3140 3139 3142 3142 3144 3145 3143 3142 3143 3144 3138 3138 3141 3146 3148 3148 3150 3152 3155 3158 3159 3161 3161 3163 3164 3163 3167 3164 3160 3158 3158 3159 3160 3159 3160 3161 3160 3158 3157 3155 3156
3139 3139 3140 3139 3138 3140 3139 3141 3139 3137 3137 3138 3139 3139 3136 3139 3142 3141 3143 3146 3148 3150 3151 3152 3155 3158 3159 3159 3159 3160 3158 3158 3157 3157 3157 3158 3159 3158 3158 3158 3158 3157 3156 3154
3135 3136 3136 3137 3137 3138 3136 3136 3137 3136 3134 3133 3136 3136 3135 3135 3138 3140 3141 3145 3142 3145 3146 3150 3154 3154 3155 3154 3155 3156 3155 3155 3156 3156 3156 3157 3157 3156 3155 3156 3157 3157 3155 3155
3129 3129 3130 3134 3134 3134 3131 3130 3133 3135 3136 3130 3132 3132 3130 3130 3134 3136 3139 3140 3146 3145 3145 3147 3148 3147 3148 3149 3149 3150 3152 3153 3154 3155 3156 3157 3157 3155 3154 3154 3154 3154 3153 3153
3126 3126 3126 3128 3129 3129 3127 3129 3131 3132 3130 3129 3132 3133 3132 3132 3133 3133 3135 3138 3144 3151 3148 3145 3146 3146 3145 3146 3143 3145 3148 3151 3152 3153 3153 3153 3154 3155 3151 3151 3151 3150 3149 3149
3127 3127 3127 3129 3130 3130 3127 3127 3128 3129 3130 3128 3129 3132 3136 3136 3134 3134 3130 3127 3134 3147 3147 3145 3141 3142 3141 3141 3140 3141 3144 3147 3150 3149 3148 3148 3149 3150 3148 3148 3147 3145 3144 3144
3125 3125 3126 3128 3130 3129 3128 3126 3127 3128 3128 3128 3127 3126 3127 3131 3131 3128 3122 3122 3115 3136 3140 3138 3135 3137 3137 3136 3136 3137 3140 3143 3145 3144 3143 3143 3143 3144 3143 3142 3141 3140 3139 3138
3125 3125 3124 3125 3125 3126 3126 3127 3125 3123 3122 3120 3122 3120 3119 3118 3123 3120 3114 3112 3124 3132 3134 3131 3132 3134 3134 3133 3132 3131 3134 3138 3141 3138 3136 3137 3136 3136 3135 3135 3135 3134 3133 3133
3123 3122 3122 3123 3122 3121 3120 3120 3120 3120 3117 3116 3114 3112 3110 3109 3110 3114 3110 3102 3113 3127 3125 3127 3129 3129 3129 3128 3128 3128 3129 3132 3134 3134 3132 3131 3131 3131 3130 3130 3130 3129 3128 3126
Wind_Speed
12 16 19 10 19 15 8 14 13 18 7 9 12 14 19 22 26 17 26 16 10 6 13 10 7 3 2 5 4 5 8 9 8 10 9 9 12 15 16 16 12 12 10 7
16 20 12 8 10 14 13 14 17 16 3 17 20 25 25 27 31 24 19 20 16 10 18 12 7 2 1 5 4 4 9 10 9 9 10 9 9 10 11 10 9 8 7 4
14 12 9 13 14 17 21 20 23 11 4 9 16 24 24 13 26 30 20 18 23 10 13 3 6 4 4 6 3 4 7 9 9 9 11 9 9 8 8 8 6 5 3 3
19 12 14 15 17 20 29 22 23 22 19 23 16 17 11 16 31 31 15 21 24 17 16 8 6 5 4 8 4 4 6 8 8 8 10 12 10 8 7 8 6 4 5 5
19 16 17 19 19 15 13 13 17 20 18 17 23 12 10 21 34 28 17 20 22 20 12 5 6 3 5 9 7 7 6 10 9 11 11 13 12 9 8 9 10 8 8 8
23 19 19 17 12 14 11 15 20 17 20 6 7 7 6 18 21 18 17 20 21 23 15 11 7 10 9 7 10 8 8 8 9 13 11 13 14 10 11 10 9 10 7 8
20 24 21 16 15 11 11 13 9 6 7 6 11 6 11 4 11 17 18 16 14 21 22 16 16 14 15 9 12 9 10 10 13 14 14 15 16 15 14 13 10 12 12 9
17 15 21 11 13 13 15 16 12 5 3 9 9 10 4 9 9 14 14 14 18 24 22 22 4 9 4 8 10 10 11 13 14 15 16 17 14 15 19 18 23 26 13 8
14 24 18 18 15 19 24 23 17 23 5 3 10 12 6 12 17 12 10 16 15 15 12 18 5 4 2 4 7 10 10 13 12 13 16 19 13 12 25 23 22 10 8 4
23 21 18 19 18 20 28 20 13 9 3 4 4 9 9 14 14 14 17 24 25 23 35 16 8 7 1 2 6 1 5 10 10 12 15 15 6 15 15 6 7 12 6 3
26 28 26 20 16 13 26 20 19 16 10 6 3 4 6 14 19 18 14 23 23 41 36 23 10 4 5 3 3 6 7 11 10 12 13 11 7 6 15 19 13 6 5 3
27 28 31 30 24 15 10 22 19 19 14 3 3 5 8 14 22 28 21 13 15 23 30 23 5 4 4 4 5 7 9 10 7 10 12 10 8 4 5 7 5 4 4 3
26 15 20 26 23 18 13 10 13 17 19 16 6 7 14 21 21 24 24 22 23 5 9 10 9 8 7 6 9 8 5 6 5 8 10 9 6 3 2 2 3 3 3 2
5 8 17 13 6 4 10 12 7 9 13 13 18 10 16 21 21 21 24 8 7 4 14 12 11 9 9 8 9 9 6 2 2 6 9 9 7 7 8 7 4 2 2 1
2 3 3 8 7 7 6 7 11 17 21 21 12 9 14 15 17 16 8 17 14 16 16 20 15 15 10 10 10 8 7 2 1 4 7 6 7 12 11 3 7 9 6 2
4 3 7 13 15 16 15 13 11 18 20 20 15 10 13 17 21 16 10 11 20 22 19 25 16 15 13 12 7 9 7 5 2 3 4 3 3 11 12 19 14 4 11 8
1 5 7 9 13 17 18 18 16 17 19 24 17 21 16 20 21 16 8 15 21 19 23 15 14 12 12 9 7 13 9 6 3 2 3 4 3 6 7 8 14 15 3 9
6 2 3 10 17 2 20 19 18 22 22 21 20 23 26 23 17 15 19 20 26 29 21 15 13 11 10 8 9 11 10 6 5 1 2 2 3 3 5 8 6 9 12 15
11 8 5 6 12 14 18 13 16 19 26 25 24 21 24 23 24 24 26 34 30 21 14 12 13 10 7 5 1 10 8 6 6 2 1 1 2 2 3 5 7 6 7 8
20 17 17 15 8 2 9 16 19 18 23 26 27 19 20 30 37 35 35 30 25 19 17 16 12 9 7 5 4 6 9 7 6 4 4 2 1 2 2 5 6 7 7 5
18 20 29 26 19 14 15 22 25 16 14 15 19 16 26 37 38 34 27 23 24 21 19 15 13 10 8 9 9 5 8 7 9 7 6 5 4 4 5 6 8 10 10 9
5 10 14 20 20 11 19 15 13 13 10 9 10 15 38 37 37 23 25 24 18 24 19 15 10 9 8 10 8 8 7 11 12 10 9 10 8 8 11 11 14 15 15 14
1 4 4 4 4 4 9 9 11 12 14 14 10 13 27 36 31 32 32 26 33 25 20 16 11 10 10 11 11 11 7 13 13 12 13 12 13 12 14 16 17 17 18 16
8 8 7 8 8 12 15 13 15 21 21 21 17 21 17 19 28 33 39 37 27 32 25 15 11 12 13 12 13 15 14 14 15 14 13 13 13 15 17 17 18 17 18 18
8 10 12 11 11 13 14 16 16 17 23 24 27 34 36 23 31 37 36 27 20 21 18 12 13 14 14 15 16 15 15 14 16 14 14 15 17 17 18 18 18 15 15 17
9 12 17 19 20 21 25 25 23 25 28 32 27 37 34 27 26 36 26 23 26 20 12 13 13 14 15 16 18 18 18 17 15 16 15 16 17 15 15 16 17 16 17 20
Wind_Direction
226 243 253 236 216 239 266 284 293 306 288 247 254 251 286 301 218 239 225 244 267 210 238 248 244 225 20 20 2 349 7 1 4 360 5 4 3 27 35 41 57 67 88 141
224 248 228 256 239 240 265 247 268 305 280 288 277 264 285 293 216 211 219 267 246 222 219 233 221 190 342 350 353 356 1 357 355 354 1 360 353 11 24 42 51 70 90 107
237 227 248 265 256 242 259 231 248 254 297 274 282 289 286 253 210 215 225 259 244 237 235 130 105 41 314 312 347 358 358 358 355 346 348 349 347 349 356 359 25 16 25 339
256 238 274 276 275 255 264 247 252 249 280 251 273 273 269 213 202 219 254 213 223 230 229 217 100 42 349 326 302 308 330 337 349 346 336 332 335 332 328 319 324 322 344 339
243 266 273 274 268 263 273 253 219 249 292 241 288 254 225 214 210 219 253 210 199 220 224 182 102 45 273 323 317 295 312 330 340 338 323 322 322 318 298 290 291 311 336 336
255 254 270 265 290 263 263 258 257 263 284 264 288 319 282 223 252 238 234 195 206 219 217 210 230 249 258 312 309 281 301 322 309 330 324 316 312 297 284 282 288 302 308 319
251 249 250 258 260 254 233 238 272 288 298 230 284 307 302 258 241 232 233 193 208 203 202 195 205 250 253 281 301 282 295 312 308 329 327 320 313 295 275 261 240 324 286 284
256 271 240 245 248 249 237 245 253 201 202 263 259 286 248 159 176 173 175 213 210 199 195 186 233 198 198 271 287 283 297 309 312 329 330 327 312 287 278 261 261 298 241 251
252 262 246 245 241 294 253 239 263 259 245 267 278 273 222 164 161 198 212 200 211 202 200 197 246 291 229 241 285 302 302 316 324 333 334 333 329 305 297 270 262 220 201 217
246 256 268 258 273 281 232 239 252 244 205 250 253 248 246 199 207 216 191 190 198 203 186 209 238 272 305 28 322 352 0 347 344 345 340 341 338 17 14 149 181 184 186 164
247 250 272 279 287 301 220 232 242 254 262 163 184 246 232 174 175 169 162 183 244 312 197 190 242 239 179 261 326 315 334 348 345 350 350 355 10 68 70 91 108 143 141 100
236 247 250 267 278 285 257 258 240 239 247 213 197 239 219 188 187 190 212 239 314 315 236 177 254 200 219 280 303 305 318 339 349 354 1 14 33 69 53 72 94 78 75 74
237 236 241 263 255 273 289 260 250 256 254 279 236 244 224 215 215 218 231 254 298 222 251 214 215 216 252 325 296 289 307 330 347 5 7 7 19 12 346 7 40 31 19 29
352 182 214 234 217 298 324 294 286 315 291 289 310 273 227 220 218 230 241 255 248 169 217 195 228 241 236 252 268 273 293 353 12 16 6 12 16 356 327 320 325 313 304 351
42 321 281 227 255 268 294 291 272 311 297 295 288 236 239 244 249 225 250 297 219 204 209 226 232 231 239 247 257 265 294 227 80 32 13 25 44 37 42 342 312 307 293 275
338 353 304 276 254 271 276 260 269 276 309 316 291 199 194 210 209 230 286 200 210 219 220 238 229 228 234 238 250 260 255 192 138 57 33 36 46 37 52 66 78 319 277 269
24 299 333 285 283 285 278 267 262 287 294 316 284 281 220 215 213 229 226 221 212 210 223 220 214 220 221 232 257 258 223 183 164 89 22 12 15 5 27 29 49 57 330 246
244 262 327 306 293 292 266 269 274 278 298 300 298 290 248 234 233 200 210 209 223 229 223 212 209 210 221 234 249 236 203 189 185 152 355 5 27 359 13 14 14 23 43 35
239 248 274 261 269 276 264 287 302 299 284 307 306 298 240 217 194 206 209 217 214 210 205 201 202 216 226 242 180 210 220 204 196 199 278 332 22 11 340 352 350 345 23 40
245 235 248 252 275 275 281 276 276 312 300 294 294 295 246 202 203 200 204 211 205 202 201 202 211 221 246 243 238 195 217 207 204 218 249 250 333 7 340 321 312 309 306 322
267 256 251 257 265 266 279 279 286 295 300 298 294 267 229 207 204 207 201 208 218 226 211 205 206 223 245 255 260 240 215 215 220 218 236 243 263 288 307 307 309 297 286 280
268 263 252 250 260 258 291 292 280 271 276 293 303 230 196 204 206 223 186 216 238 247 222 207 221 249 260 258 251 248 238 255 244 233 239 248 264 286 295 298 298 297 292 283
257 35 21 27 139 317 314 320 324 296 259 249 238 254 234 224 240 248 263 240 275 249 231 234 233 237 240 244 250 258 238 242 245 232 252 257 268 267 285 292 293 297 291 289
348 354 16 14 351 335 332 322 300 290 288 276 257 228 236 272 265 266 263 253 276 225 231 234 242 246 244 243 241 250 246 244 243 240 249 265 274 282 284 289 292 293 290 286
350 335 336 352 339 338 344 320 302 311 294 286 269 270 276 258 269 263 240 251 222 237 226 234 237 237 239 237 239 242 245 247 252 260 267 278 284 287 288 288 290 288 287 289
325 334 338 337 332 325 322 326 315 302 303 287 284 291 262 246 244 232 226 179 181 233 216 226 233 232 232 232 229 233 240 244 249 259 266 274 276 268 270 275 279 276 283 286